Satellite: NOAA-11 Catalog number: 19531 Epoch time: 12172.75107517 Element set: 0963 Inclination: 098.7328 deg RA of node: 257.8354 deg Eccentricity: 0.0010588 Arg of perigee: 210.7776 deg Mean anomaly: 149.2776 deg Mean motion: 14.14970630 rev/day Decay rate: -1.56e-06 rev/day^2 Epoch rev: 22501 Checksum: 312
Satellite: NOAA-12 Catalog number: 21263 Epoch time: 12172.97805650 Element set: 0465 Inclination: 098.7289 deg RA of node: 194.6253 deg Eccentricity: 0.0013478 Arg of perigee: 186.5061 deg Mean anomaly: 173.5946 deg Mean motion: 14.25502176 rev/day Decay rate: 5.1e-07 rev/day^2 Epoch rev: 09709 Checksum: 318
Satellite: MET-3/5 Catalog number: 21655 Epoch time: 12173.85898759 Element set: 439 Inclination: 082.5561 deg RA of node: 148.8873 deg Eccentricity: 0.0012296 Arg of perigee: 314.4327 deg Mean anomaly: 045.5788 deg Mean motion: 13.17041161 rev/day Decay rate: -1.42e-06 rev/day^2 Epoch rev: 250 Checksum: 313
Satellite: MET-2/21 Catalog number: 22782 Epoch time: 12172.69960133 Element set: 0450 Inclination: 082.5478 deg RA of node: 029.7283 deg Eccentricity: 0.0023394 Arg of perigee: 139.6945 deg Mean anomaly: 220.5938 deg Mean motion: 13.83684538 rev/day Decay rate: 2.5e-07 rev/day^2 Epoch rev: 94965 Checksum: 337
Satellite: OKEAN-4 Catalog number: 23317 Epoch time: 12173.88700447 Element set: 920 Inclination: 082.5402 deg RA of node: 026.8138 deg Eccentricity: 0.0021193 Arg of perigee: 341.3541 deg Mean anomaly: 018.6897 deg Mean motion: 14.83817592 rev/day Decay rate: 6.92e-06 rev/day^2 Epoch rev: 95550 Checksum: 307
Satellite: NOAA-14 Catalog number: 23455 Epoch time: 12172.93909726 Element set: 0944 Inclination: 098.8276 deg RA of node: 256.3912 deg Eccentricity: 0.0008841 Arg of perigee: 314.4843 deg Mean anomaly: 045.5602 deg Mean motion: 14.13903979 rev/day Decay rate: -5.3e-07 rev/day^2 Epoch rev: 90132 Checksum: 318
Satellite: NOAA-15 Catalog number: 25338 Epoch time: 12172.70776213 Element set: 0304 Inclination: 098.6893 deg RA of node: 159.5817 deg Eccentricity: 0.0011699 Arg of perigee: 097.4717 deg Mean anomaly: 262.7774 deg Mean motion: 14.25085229 rev/day Decay rate: 3.27e-06 rev/day^2 Epoch rev: 73335 Checksum: 336
Satellite: RESURS Catalog number: 25394 Epoch time: 12172.98444323 Element set: 0126 Inclination: 098.3200 deg RA of node: 161.0218 deg Eccentricity: 0.0000510 Arg of perigee: 190.4194 deg Mean anomaly: 169.6976 deg Mean motion: 14.24289790 rev/day Decay rate: 1.0e-07 rev/day^2 Epoch rev: 72494 Checksum: 284
Satellite: FENGYUN1 Catalog number: 25730 Epoch time: 12172.90553191 Element set: 0640 Inclination: 098.8466 deg RA of node: 131.8215 deg Eccentricity: 0.0020119 Arg of perigee: 356.8723 deg Mean anomaly: 003.2308 deg Mean motion: 14.09615405 rev/day Decay rate: 1.072e-05 rev/day^2 Epoch rev: 67513 Checksum: 274
Satellite: OKEAN-0 Catalog number: 25860 Epoch time: 12173.80813647 Element set: 660 Inclination: 097.9359 deg RA of node: 136.3563 deg Eccentricity: 0.0000619 Arg of perigee: 100.3765 deg Mean anomaly: 259.7514 deg Mean motion: 14.74224297 rev/day Decay rate: 4.50e-06 rev/day^2 Epoch rev: 69525 Checksum: 312
Satellite: NOAA-16 Catalog number: 26536 Epoch time: 12172.72013117 Element set: 0788 Inclination: 099.0941 deg RA of node: 214.8979 deg Eccentricity: 0.0011327 Arg of perigee: 076.0588 deg Mean anomaly: 284.1831 deg Mean motion: 14.12751362 rev/day Decay rate: 1.00e-06 rev/day^2 Epoch rev: 60553 Checksum: 296
Satellite: NOAA-17 Catalog number: 27453 Epoch time: 12172.74552719 Element set: 0744 Inclination: 098.3357 deg RA of node: 199.6029 deg Eccentricity: 0.0012364 Arg of perigee: 142.0905 deg Mean anomaly: 218.1133 deg Mean motion: 14.24448994 rev/day Decay rate: 3.51e-06 rev/day^2 Epoch rev: 51926 Checksum: 315
Satellite: NOAA-18 Catalog number: 28654 Epoch time: 12172.75135246 Element set: 0221 Inclination: 099.0454 deg RA of node: 130.8687 deg Eccentricity: 0.0014760 Arg of perigee: 141.4841 deg Mean anomaly: 218.7381 deg Mean motion: 14.11662370 rev/day Decay rate: -9.1e-07 rev/day^2 Epoch rev: 36506 Checksum: 293
Satellite: NOAA-19 Catalog number: 33591 Epoch time: 12172.76001829 Element set: 0414 Inclination: 098.8641 deg RA of node: 112.5051 deg Eccentricity: 0.0014631 Arg of perigee: 014.9262 deg Mean anomaly: 345.2355 deg Mean motion: 14.11350686 rev/day Decay rate: 1.73e-06 rev/day^2 Epoch rev: 17351 Checksum: 276
/EX SB KEPS @ AMSAT $ORB12173.M Orbital Elements 12173.MISC
HR AMSAT ORBITAL ELEMENTS FOR MANNED AND MISCELLANEOUS SATELLITES FROM WA5QGD FORT WORTH,TX June 21, 2012 Send SUBSCRIBE KEPS/UNSUBSCRIBE KEPS to [email protected] only BID: ORB12173.M TO ALL RADIO AMATEURS BT
Satellite: HUBBLE Catalog number: 20580 Epoch time: 12173.90651463 Element set: 20 Inclination: 028.4670 deg RA of node: 112.6569 deg Eccentricity: 0.0003150 Arg of perigee: 114.8918 deg Mean anomaly: 245.2198 deg Mean motion: 15.02570551 rev/day Decay rate: 1.229e-05 rev/day^2 Epoch rev: 1544 Checksum: 261
Satellite: ISS Catalog number: 25544 Epoch time: 12173.89080567 Element set: 791 Inclination: 051.6378 deg RA of node: 098.8696 deg Eccentricity: 0.0008487 Arg of perigee: 078.9999 deg Mean anomaly: 354.8665 deg Mean motion: 15.55737194 rev/day Decay rate: 1.7190e-04 rev/day^2 Epoch rev: 77874 Checksum: 390
Satellite: CO-58 Catalog number: 28895 Epoch time: 12173.60430504 Element set: 206 Inclination: 097.9120 deg RA of node: 039.6830 deg Eccentricity: 0.0018818 Arg of perigee: 135.0330 deg Mean anomaly: 225.2407 deg Mean motion: 14.60652431 rev/day Decay rate: 5.64e-06 rev/day^2 Epoch rev: 35430 Checksum: 281
Satellite: FALCON Catalog number: 30776 Epoch time: 12172.63311605 Element set: 372 Inclination: 035.4332 deg RA of node: 255.7958 deg Eccentricity: 0.0002361 Arg of perigee: 026.9835 deg Mean anomaly: 333.1006 deg Mean motion: 15.07614674 rev/day Decay rate: 3.515e-05 rev/day^2 Epoch rev: 29077 Checksum: 283
Satellite: MAST Catalog number: 31126 Epoch time: 12172.52576113 Element set: 0491 Inclination: 097.8724 deg RA of node: 183.4316 deg Eccentricity: 0.0094926 Arg of perigee: 100.0788 deg Mean anomaly: 261.1125 deg Mean motion: 14.54173988 rev/day Decay rate: 6.35e-06 rev/day^2 Epoch rev: 27475 Checksum: 303
Satellite: CAPE1 Catalog number: 31130 Epoch time: 12172.49564149 Element set: 497 Inclination: 097.8821 deg RA of node: 179.7825 deg Eccentricity: 0.0102661 Arg of perigee: 113.2007 deg Mean anomaly: 247.9978 deg Mean motion: 14.52954791 rev/day Decay rate: 5.21e-06 rev/day^2 Epoch rev: 27425 Checksum: 318
Satellite: COMPASS Catalog number: 32787 Epoch time: 12172.71019240 Element set: 0336 Inclination: 097.8008 deg RA of node: 233.9680 deg Eccentricity: 0.0016284 Arg of perigee: 051.5947 deg Mean anomaly: 308.6711 deg Mean motion: 14.84040052 rev/day Decay rate: 1.820e-05 rev/day^2 Epoch rev: 22433 Checksum: 278
Satellite: AAUSAT2 Catalog number: 32788 Epoch time: 12172.67906079 Element set: 0326 Inclination: 097.8044 deg RA of node: 234.3225 deg Eccentricity: 0.0016097 Arg of perigee: 053.0694 deg Mean anomaly: 307.1944 deg Mean motion: 14.84368974 rev/day Decay rate: 2.811e-05 rev/day^2 Epoch rev: 22435 Checksum: 319
Satellite: DO-64 Catalog number: 32789 Epoch time: 12173.59851344 Element set: 341 Inclination: 097.8119 deg RA of node: 237.2578 deg Eccentricity: 0.0015460 Arg of perigee: 046.9108 deg Mean anomaly: 313.3385 deg Mean motion: 14.85882694 rev/day Decay rate: 3.112e-05 rev/day^2 Epoch rev: 22453 Checksum: 326
Satellite: CO-66 Catalog number: 32791 Epoch time: 12172.70118379 Element set: 324 Inclination: 097.8009 deg RA of node: 233.6980 deg Eccentricity: 0.0016767 Arg of perigee: 051.7822 deg Mean anomaly: 308.4888 deg Mean motion: 14.83450877 rev/day Decay rate: 1.520e-05 rev/day^2 Epoch rev: 22426 Checksum: 327
Satellite: RS-30 Catalog number: 32953 Epoch time: 12173.71670317 Element set: 890 Inclination: 082.5021 deg RA of node: 292.3204 deg Eccentricity: 0.0017590 Arg of perigee: 299.8570 deg Mean anomaly: 060.0764 deg Mean motion: 12.43024781 rev/day Decay rate: 1.0e-07 rev/day^2 Epoch rev: 18512 Checksum: 274
Satellite: TACSAT-3 Catalog number: 35001 Epoch time: 12121.72616188 Element set: 0001 Inclination: 040.4259 deg RA of node: 351.8840 deg Eccentricity: 0.0007146 Arg of perigee: 275.2650 deg Mean anomaly: 085.0693 deg Mean motion: 16.45157000 rev/day Decay rate: 1.5204951e-01 rev/day^2 Epoch rev: 16699 Checksum: 280
Satellite: PHARMSAT Catalog number: 35002 Epoch time: 12173.78116828 Element set: 947 Inclination: 040.4581 deg RA of node: 037.8790 deg Eccentricity: 0.0011622 Arg of perigee: 267.3531 deg Mean anomaly: 092.6007 deg Mean motion: 15.86959301 rev/day Decay rate: 1.10455e-03 rev/day^2 Epoch rev: 17505 Checksum: 291
Satellite: METEOR-M Catalog number: 35865 Epoch time: 12173.72327914 Element set: 522 Inclination: 098.6546 deg RA of node: 227.9645 deg Eccentricity: 0.0003223 Arg of perigee: 051.4921 deg Mean anomaly: 308.6538 deg Mean motion: 14.21864581 rev/day Decay rate: -6.0e-08 rev/day^2 Epoch rev: 14324 Checksum: 296
Satellite: RS-38 Catalog number: 35869 Epoch time: 12173.67340477 Element set: 528 Inclination: 098.6502 deg RA of node: 227.9103 deg Eccentricity: 0.0005336 Arg of perigee: 046.2558 deg Mean anomaly: 313.9058 deg Mean motion: 14.22075476 rev/day Decay rate: 4.1e-07 rev/day^2 Epoch rev: 14325 Checksum: 308
Satellite: JUGNU Catalog number: 37839 Epoch time: 12173.69331724 Element set: 171 Inclination: 019.9653 deg RA of node: 330.9477 deg Eccentricity: 0.0018442 Arg of perigee: 273.1431 deg Mean anomaly: 086.6863 deg Mean motion: 14.12063053 rev/day Decay rate: 6.20e-06 rev/day^2 Epoch rev: 3588 Checksum: 297
